[[{"header":{"parameterUnit":"m.s-1","parameterCategory":1,"la1":30.2991,"la2":30.254,"lo1":-89.0895,"lo2":-89.0444,"dy":0.0017,"dx":0.0017,"nx":28,"ny":28,"refTime":"2025-03-20T09:00:00:Z","depth":0,"parameterNumber":2,"parameterNumberName":"U-component_of_WINDS"},"data":[0,0,0,0,0,0,0,0,0,0,0,0,0,0,0,0,0,0,0,0,0,0,0,0,0,0,0,0,0,0,0,0,0,0,0,0,0,0,0,0,0,0,0,0,0,0,0,0,0,0,0,0,0,0,0,0,0,0,-1.5021,-1.502,0,-1.4921,-1.492,-1.4919,-1.4808,-1.4807,-1.4805,-1.4803,-1.4701,-1.47,-1.4698,0,0,0,0,0,0,0,0,0,0,0,0,0,-1.5119,-1.5118,-1.5021,-1.502,-1.5019,-1.4921,-1.492,-1.4918,-1.4808,-1.4807,-1.4805,-1.4803,-1.4701,-1.47,-1.4698,0,0,0,0,0,0,0,0,0,0,0,0,0,-1.5054,-1.5117,-1.5022,-1.4952,-1.4945,-1.4921,-1.492,-1.4918,-1.4809,-1.4806,-1.4804,-1.4802,-1.4702,-1.47,-1.4698,-1.4735,0,0,-1.4692,-1.4692,0,0,0,0,0,0,0,0,-1.5057,-1.505,-1.4964,-1.4957,-1.4949,-1.4875,-1.4916,-1.4857,-1.4809,-1.4861,-1.4803,-1.4801,-1.4761,-1.4754,-1.474,-1.473,-1.4726,-1.4692,-1.4691,-1.469,-1.469,0,0,0,0,0,0,0,-1.5062,-1.5054,-1.4982,-1.4963,-1.4954,-1.4927,-1.4915,-1.4905,-1.4825,-1.4856,-1.4848,-1.4837,-1.4756,-1.4742,-1.4737,-1.4724,-1.4692,-1.4691,-1.469,-1.4689,-1.474,-1.4743,0,0,0,0,0,0,-1.5077,-1.5058,-1.4985,-1.4979,-1.4998,-1.4927,-1.4913,-1.4901,-1.4825,-1.4811,-1.4839,-1.4833,-1.4747,-1.4739,-1.4733,-1.4771,-1.469,-1.4689,-1.4688,-1.4738,-1.4741,-1.4744,0,0,0,0,0,0,-1.508,-1.5071,-1.4989,-1.5016,-1.5004,-1.4928,-1.4915,-1.49,-1.4886,-1.4813,-1.4798,-1.484,-1.4744,-1.4736,-1.4735,-1.4766,-1.4688,-1.4686,-1.4735,-1.4739,-1.4742,-1.4849,0,0,0,0,0,0,-1.5083,-1.5073,-1.5086,-1.5017,-1.5003,-1.4993,-1.4916,-1.49,-1.4883,-1.4873,-1.4809,-1.4796,-1.4742,-1.4739,-1.4734,-1.4762,-1.4685,-1.4732,-1.4737,-1.4741,-1.4842,-1.4855,-1.4867,0,0,0,0,0,-1.5087,-1.5119,-1.5087,-1.5079,-1.5017,-1.4995,-1.4986,-1.4923,-1.4886,-1.4899,-1.4852,-1.4798,-1.4764,-1.474,-1.4733,-1.4762,-1.473,-1.4735,-1.4741,-1.4836,-1.4853,-1.4867,0,0,0,0,0,0,-1.5193,-1.5109,-1.5072,-1.5084,-1.5047,-1.4976,-1.499,-1.4942,-1.4916,-1.4907,-1.483,-1.4817,-1.4826,-1.4794,-1.4768,-1.4794,-1.4739,-1.4744,-1.4814,-1.4829,-1.4842,-1.4849,-1.4683,0,0,0,0,0,-1.5218,-1.5207,-1.5134,-1.5151,-1.5135,-1.5066,-1.5054,-1.5009,-1.4968,-1.4952,-1.4905,-1.4868,-1.4848,-1.4837,-1.4815,-1.4837,-1.4822,-1.4854,-1.4866,-1.4877,-1.4882,-1.4892,-1.4905,-1.4762,-1.4762,-1.4762,0,0,-1.5269,-1.5222,-1.5219,-1.5172,-1.5138,-1.5129,-1.5054,-1.5047,-1.5039,-1.4951,-1.4947,-1.4913,-1.4866,-1.4877,-1.488,-1.485,-1.4918,-1.4884,-1.4893,-1.4892,-1.4899,-1.4913,-1.4925,-1.4766,-1.4765,-1.4764,0,0,-1.5357,-1.532,-1.533,-1.5299,-1.5249,-1.5204,-1.5207,-1.5143,-1.5116,-1.5112,-1.5046,-1.5037,-1.5005,-1.4975,-1.4955,-1.5035,-1.4985,-1.503,-1.5095,-1.5106,-1.5117,-1.5127,-1.5156,-1.5167,-1.5035,-1.5035,-1.5035,0,-1.5426,-1.5409,-1.5342,-1.5339,-1.5321,-1.5241,-1.5252,-1.5225,-1.5171,-1.516,-1.5128,-1.5088,-1.5051,-1.5055,-1.5075,-1.5061,-1.5063,-1.5036,-1.5121,-1.513,-1.5138,-1.5165,-1.5176,-1.5041,-1.504,-1.504,-1.5039,0,-1.5497,-1.5487,-1.5501,-1.5452,-1.5435,-1.5439,-1.5373,-1.5365,-1.5322,-1.528,-1.5278,-1.5231,-1.5199,-1.5197,-1.5154,-1.5195,-1.5178,-1.5135,-1.5079,-1.5159,-1.5182,-1.5192,-1.5049,-1.5047,-1.5046,-1.5044,0,0,-1.5647,-1.5562,-1.5568,-1.5545,-1.5486,-1.5477,-1.5479,-1.5447,-1.5442,-1.5408,-1.5408,-1.5384,-1.5344,-1.5322,-1.5276,-1.5286,-1.5353,-1.5241,-1.5239,-1.5264,-1.5396,-1.5428,-1.5441,-1.532,-1.5322,-1.5323,-1.5399,0,-1.5724,-1.5721,-1.5662,-1.5675,-1.5665,-1.5591,-1.5593,-1.5557,-1.5519,-1.5505,-1.5462,-1.5447,-1.5395,-1.5382,-1.5388,-1.5343,-1.5378,-1.5337,-1.5319,-1.5319,-1.5332,-1.5453,-1.5487,-1.5561,-1.5408,-1.541,-1.5411,0,-1.5812,-1.5785,-1.5798,-1.574,-1.5733,-1.5736,-1.5703,-1.5691,-1.565,-1.5621,-1.5599,-1.5547,-1.5545,-1.5493,-1.549,-1.5463,-1.5453,-1.543,-1.5431,-1.5426,-1.5369,-1.5451,-1.5583,-1.5595,-1.5425,-1.5424,-1.5423,0,-1.5921,-1.5887,-1.589,-1.5873,-1.5805,-1.5809,-1.5781,-1.5737,-1.5723,-1.5695,-1.5685,-1.5658,-1.5643,-1.5623,-1.5566,-1.5533,-1.557,-1.5513,-1.5546,-1.5548,-1.5556,-1.5556,-1.5688,-1.5551,-1.5551,-1.5551,-1.555,0,-1.6012,-1.6023,-1.5938,-1.594,-1.5951,-1.5884,-1.5896,-1.5861,-1.5824,-1.5818,-1.5753,-1.575,-1.5674,-1.5663,-1.5618,-1.5623,-1.5617,-1.5594,-1.5582,-1.5599,-1.5602,-1.559,-1.5584,-1.5554,-1.5553,-1.5552,-1.5552,0,-1.6134,-1.6077,-1.6076,-1.6013,-1.5998,-1.6008,-1.5954,-1.5954,-1.5913,-1.5907,-1.5902,-1.5837,-1.582,-1.5761,-1.573,-1.57,-1.5719,-1.5696,-1.5733,-1.5725,-1.5762,-1.5759,-1.589,-1.5904,-1.5759,-1.5761,-1.5762,0,-1.6196,-1.6202,-1.614,-1.6132,-1.6107,-1.6095,-1.608,-1.6016,-1.6003,-1.5958,-1.5964,-1.5942,-1.5921,-1.5898,-1.5848,-1.5824,-1.58,-1.5848,-1.5796,-1.5814,-1.58,-1.5801,-1.5801,-1.5858,-1.586,-1.5862,-1.5863,0,-1.6311,-1.6284,-1.6265,-1.6238,-1.6222,-1.6198,-1.6169,-1.6166,-1.6094,-1.6084,-1.6066,-1.605,-1.6018,-1.5998,-1.5966,-1.5938,-1.5889,-1.588,-1.5887,-1.5904,-1.5925,-1.5915,-1.5763,-1.5877,-1.5876,-1.5875,-1.5874,-1.5873,-1.6404,-1.6407,-1.6365,-1.6347,-1.6319,-1.6294,-1.6291,-1.625,-1.6234,-1.6204,-1.6167,-1.6154,-1.6114,-1.6067,-1.6043,-1.6032,-1.6005,-1.6015,-1.6017,-1.602,-1.6029,-1.5928,-1.6026,-1.6026,-1.6025,-1.6025,-1.6025,0,-1.6517,-1.6486,-1.647,-1.6433,-1.642,-1.6375,-1.6342,-1.6334,-1.6323,-1.629,-1.6272,-1.6252,-1.6233,-1.6182,-1.6158,-1.6159,-1.6136,-1.6155,-1.6154,-1.6148,-1.6054,-1.6051,-1.6174,-1.6174,-1.6174,-1.6174,-1.6174,-1.6174,-1.6573,-1.6576,-1.6544,-1.6534,-1.6503,-1.649,-1.6475,-1.6452,-1.6426,-1.6407,-1.639,-1.6358,-1.6319,-1.6291,-1.6272,-1.6258,-1.6252,-1.6278,-1.6257,-1.6169,-1.6155,-1.6141,-1.6138,-1.6277,-1.6277,-1.6351,-1.6352,-1.6353]},{"header":{"parameterUnit":"m.s-1","parameterCategory":1,"la1":30.2991,"la2":30.254,"lo1":-89.0895,"lo2":-89.0444,"dy":0.0017,"dx":0.0017,"nx":28,"ny":28,"refTime":"2025-03-20T09:00:00:Z","depth":0,"parameterNumber":3,"parameterNumberName":"V-component_of_WINDS"},"data":[0,0,0,0,0,0,0,0,0,0,0,0,0,0,0,0,0,0,0,0,0,0,0,0,0,0,0,0,0,0,0,0,0,0,0,0,0,0,0,0,0,0,0,0,0,0,0,0,0,0,0,0,0,0,0,0,0,0,1.9889,1.9889,0,1.9881,1.9881,1.9881,1.9915,1.9916,1.9917,1.9917,1.9905,1.9904,1.9903,0,0,0,0,0,0,0,0,0,0,0,0,0,1.9931,1.993,1.9889,1.9889,1.9889,1.9881,1.9881,1.9881,1.9914,1.9916,1.9917,1.9918,1.9906,1.9904,1.9903,0,0,0,0,0,0,0,0,0,0,0,0,0,1.9917,1.993,1.9889,1.9905,1.9906,1.9881,1.9881,1.9881,1.9914,1.9916,1.9917,1.9919,1.9906,1.9904,1.9902,1.9861,0,0,1.9897,1.9896,0,0,0,0,0,0,0,0,1.9917,1.9915,1.9903,1.9904,1.9905,1.9901,1.9891,1.9874,1.9914,1.9911,1.9918,1.9919,1.9902,1.9901,1.9896,1.986,1.986,1.9896,1.9895,1.9895,1.9894,0,0,0,0,0,0,0,1.9918,1.9916,1.9886,1.9903,1.9904,1.9911,1.9911,1.9888,1.9898,1.9911,1.9914,1.9913,1.9903,1.9898,1.9896,1.986,1.9897,1.9895,1.9894,1.9893,1.979,1.9788,0,0,0,0,0,0,1.9918,1.9916,1.9886,1.9886,1.9915,1.9909,1.9909,1.9901,1.9899,1.99,1.9911,1.9914,1.99,1.9898,1.9895,1.9847,1.9895,1.9893,1.9892,1.9792,1.979,1.9788,0,0,0,0,0,0,1.9918,1.9915,1.9887,1.9902,1.9899,1.9907,1.9897,1.99,1.9894,1.9899,1.99,1.9904,1.9901,1.9898,1.987,1.9847,1.9892,1.989,1.9793,1.9791,1.9789,1.9749,0,0,0,0,0,0,1.992,1.9915,1.99,1.9901,1.9898,1.9862,1.9896,1.9898,1.9891,1.9895,1.9892,1.9893,1.9902,1.9872,1.9868,1.9845,1.9889,1.9796,1.9792,1.979,1.9752,1.9745,1.9739,0,0,0,0,0,1.9921,1.9888,1.9899,1.9895,1.9879,1.986,1.9858,1.9871,1.9889,1.9874,1.9877,1.9893,1.985,1.9869,1.9864,1.984,1.9797,1.9793,1.979,1.9755,1.9747,1.974,0,0,0,0,0,0,1.9882,1.9888,1.99,1.9867,1.9863,1.9866,1.9847,1.9861,1.9851,1.9854,1.9869,1.9868,1.9837,1.9836,1.9857,1.98,1.9827,1.9822,1.9802,1.9794,1.9788,1.9788,1.9887,0,0,0,0,0,1.987,1.9855,1.9861,1.9831,1.9828,1.9838,1.983,1.984,1.9836,1.9834,1.9835,1.9829,1.9815,1.9804,1.9791,1.9753,1.9752,1.9734,1.9728,1.9723,1.9718,1.9697,1.9689,1.9776,1.9776,1.9776,0,0,1.9843,1.9845,1.9835,1.9823,1.9821,1.9804,1.9836,1.9817,1.9805,1.9831,1.9804,1.9805,1.9799,1.9766,1.9751,1.9764,1.9694,1.9718,1.9714,1.9712,1.9693,1.9684,1.9677,1.9774,1.9774,1.9774,0,0,1.9787,1.9788,1.9763,1.9761,1.9758,1.9765,1.9759,1.976,1.9762,1.9736,1.9755,1.974,1.9715,1.971,1.9705,1.9648,1.9663,1.9644,1.961,1.959,1.9583,1.9577,1.9556,1.9549,1.9639,1.9639,1.9639,0,1.9755,1.9732,1.9748,1.9728,1.9722,1.9747,1.9721,1.9718,1.971,1.9705,1.9721,1.969,1.9688,1.9654,1.964,1.9635,1.9628,1.9643,1.9583,1.9577,1.9571,1.9552,1.9544,1.9637,1.9637,1.9637,1.9638,0,1.9692,1.9675,1.9656,1.9649,1.9641,1.9618,1.963,1.962,1.9631,1.9636,1.9609,1.9608,1.9595,1.9588,1.9598,1.9555,1.9564,1.9581,1.9607,1.9561,1.9542,1.9535,1.9633,1.9634,1.9635,1.9636,0,0,1.9609,1.9614,1.9606,1.9604,1.9603,1.959,1.9569,1.9558,1.9548,1.9543,1.9524,1.9503,1.9519,1.9513,1.9522,1.9505,1.946,1.9524,1.9524,1.9512,1.9412,1.9399,1.939,1.947,1.9469,1.9468,1.9412,0,1.9554,1.9518,1.9532,1.9495,1.948,1.9504,1.9485,1.9482,1.9487,1.9474,1.9478,1.9463,1.9485,1.9482,1.9466,1.9469,1.944,1.9473,1.9452,1.9451,1.9452,1.938,1.9366,1.9313,1.9405,1.9404,1.9403,0,1.9484,1.9477,1.9439,1.9442,1.9436,1.9419,1.941,1.9398,1.9395,1.9399,1.9393,1.9407,1.9385,1.9413,1.9382,1.9405,1.9397,1.9397,1.9396,1.9393,1.9423,1.9375,1.9297,1.9289,1.9392,1.9393,1.9394,0,1.9427,1.9408,1.9383,1.938,1.9383,1.937,1.9371,1.937,1.9362,1.9355,1.935,1.9339,1.9333,1.9324,1.9334,1.9353,1.9302,1.933,1.9304,1.9303,1.9291,1.9291,1.9209,1.9287,1.9288,1.9288,1.9288,0,1.9363,1.9338,1.9357,1.9341,1.9314,1.9331,1.9303,1.9306,1.9305,1.929,1.931,1.9295,1.931,1.9296,1.9304,1.9278,1.9275,1.9277,1.9279,1.9274,1.9274,1.9269,1.9272,1.9286,1.9286,1.9287,1.9287,0,1.9294,1.9306,1.9279,1.9285,1.9286,1.9266,1.927,1.9255,1.9262,1.9242,1.9238,1.9248,1.9233,1.9243,1.9227,1.9232,1.9197,1.9205,1.9198,1.92,1.9173,1.9175,1.9084,1.9073,1.9159,1.9158,1.9157,0,1.9251,1.9233,1.9238,1.923,1.9229,1.9215,1.9209,1.9225,1.9216,1.9213,1.9198,1.9185,1.9175,1.9149,1.9154,1.9142,1.9149,1.9118,1.9147,1.9144,1.9148,1.9148,1.9146,1.9112,1.9111,1.911,1.9109,0,1.9175,1.9182,1.9172,1.9165,1.9156,1.915,1.9146,1.9138,1.9154,1.9144,1.9129,1.9122,1.9107,1.9093,1.9084,1.9083,1.9098,1.9101,1.9094,1.9088,1.9085,1.9086,1.9181,1.9102,1.9103,1.9103,1.9104,1.9104,1.9118,1.9103,1.9104,1.9092,1.9091,1.9087,1.9073,1.9079,1.9068,1.9058,1.9068,1.905,1.9048,1.9037,1.9035,1.902,1.9033,1.9023,1.902,1.9017,1.9013,1.9088,1.9019,1.9019,1.9019,1.9019,1.9019,0,1.9042,1.9044,1.9033,1.9028,1.9018,1.9036,1.9032,1.9023,1.9008,1.9005,1.8996,1.8979,1.8967,1.8971,1.896,1.8947,1.8954,1.8944,1.8944,1.8944,1.9003,1.901,1.8938,1.8938,1.8938,1.8938,1.8938,1.8939,1.9001,1.8977,1.8984,1.896,1.8962,1.8946,1.8942,1.8939,1.8937,1.8918,1.8908,1.8912,1.8912,1.8901,1.889,1.8891,1.8886,1.8873,1.8876,1.8931,1.8939,1.8947,1.8953,1.8871,1.8871,1.8818,1.8818,1.8817]}]]